Weather in Ivanov Bor

Russia / Vologda Oblast     59°46′00″N   38°15′11″E
temp.,
°C
wind,
m/s
gust,
m/s
humid.,
%
clouds,
%
prec.,
mm/h
press.,
hPa
HPBL,
m
23 september, thu
thu2300:00+6e41089100 0.3 1018615
03:00+6ese3894100 0.3 1018416
06:00+6ese3897100 0.1 1018400
09:00+7se3895100 0.1 1018431
12:00+10se368288 0.0 1017712
15:00+10ese378099 0.0 1015527
18:00+9ese41083100 0.0 1013613
21:00+7ese41194100 0.1 1011571
24 september, fri
fri2400:00+9se41195100 0.6 1009720
03:00+9se4994100 0.7 1007762
06:00+8se2798100 1.0 1006431
09:00+9sse3796100 1.8 1005507
12:00+11sse468087 0.4 10051006
15:00+10sse478597 1.4 1005837
18:00+9se3990100 0.9 1005455
21:00+6se399695 1.0 1006274
25 september, sat
sat2500:00+6se289759 0.0 1006210
03:00+4se269737 0.0 1006144
06:00+5se279796 0.0 1006196
09:00+7sse378982 0.0 1006364
12:00+10sse3881100 0.1 1006797
15:00+10sse3882100 0.3 10051191
18:00+8sse3888100 0.1 1006504
21:00+7sse3894100 0.2 1006344
26 september, sun
sun2600:00+7ese2795100 0.0 1006264
03:00+7ese2697100 1.3 1006256
06:00+7ese2796100 0.8 1007273
09:00+7e2697100 1.4 1009268
12:00+8ene2695100 0.1 1011302
15:00+10ne248496 0.3 1014381
18:00+9nne269295 0.4 1017204
21:00+7ne2697100 0.4 1019142
27 september, mon
mon2700:00+5ne249850 0.0 102297
03:00+7n2692100 0.0 1023159
06:00+7n3990100 0.0 1025324
09:00+7n3894100 0.1 1026339
12:00+9nne3789100 0.0 1028580
15:00+10ne378598 0.0 1029729
18:00+8ne3791100 0.1 1030410
21:00+8ne2795100 0.1 1031331